weather.gov     
National Weather Service

Terminal Aerodrome Forecast
NWS Homepage
This page is being discontinued on March 12, 2014.
The same data is available at this site. Please update your bookmarks.
Thank you, and we apologize for the inconvenience.
Please send an email to SR-SRH.Webmaster@noaa.gov with any concerns.


Current Version
Previous Version:    01  02  03  04  05  06  07  08  09  10  11  12  13  14  15  16  17  18  19  20  21  22  23  
[Printable]
246
FTUS44 KOUN 311734
TAFPNC
TAF
KPNC 311734Z 3118/0118 17010KT 4SM -RA BR OVC035
     FM312200 17010KT 2SM RA BR OVC008
     FM010000 18010KT 1SM -RA BR OVC005
     FM011000 32012KT 3SM BR OVC008
     FM011300 33015G22KT P6SM BKN015
     FM011600 33022G31KT P6SM BKN025=




246
FTUS44 KOUN 311734
TAFPNC
TAF
KPNC 311734Z 3118/0118 17010KT 4SM -RA BR OVC035
     FM312200 17010KT 2SM RA BR OVC008
     FM010000 18010KT 1SM -RA BR OVC005
     FM011000 32012KT 3SM BR OVC008
     FM011300 33015G22KT P6SM BKN015
     FM011600 33022G31KT P6SM BKN025=


U.S. Dept. of Commerce
NOAA National Weather Service
1325 East West Highway
Silver Spring, MD 20910
E-mail: w-nws.webmaster@noaa.gov
Page last modified: May 16, 2007
NATIONAL WEATHER SERVICE: for Safety, for Work, for Fun - FOR LIFE